Location: Zagreb
(45.8000°N, 16.0000°E)
Time: 21:07:21
(UTC+01:00)

Altair - Visible Passes

Search period start: 30 November 2022 00:00
Search period end: 10 December 2022 00:00
Orbit: 1501 x 1682 km, 47.2° (Epoch: 30 November)

Date Brightness Start Highest point End Pass type
(mag) Time Alt. Az. Time Alt. Az. Time Alt. Az.
30 Nov 7.5 17:18:07 10° WNW 17:27:25 86° SSW 17:36:37 10° ESE visible
30 Nov 8.2 19:23:01 10° WNW 19:31:29 43° SW 19:35:17 30° S visible
30 Nov 9.6 21:31:41 10° WSW 21:33:22 11° WSW 21:33:22 11° WSW visible
01 Dec 7.5 16:52:54 10° WNW 17:02:14 89° SSW 17:11:26 10° ESE visible
01 Dec 8.1 18:57:47 10° WNW 19:06:23 46° SW 19:12:16 21° SSE visible
01 Dec 9.4 21:05:29 10° W 21:09:11 13° WSW 21:10:21 13° SW visible
02 Dec 8.1 18:32:34 10° WNW 18:41:17 49° SW 18:49:26 12° SSE visible
02 Dec 9.4 20:39:38 10° W 20:44:12 15° SW 20:47:33 12° SSW visible
03 Dec 8.1 18:07:21 10° WNW 18:16:11 53° SW 18:24:58 10° SE visible
03 Dec 9.4 20:13:58 10° W 20:19:11 17° SW 20:24:25 10° SSW visible
04 Dec 8.0 17:42:09 10° WNW 17:51:05 56° SSW 17:59:56 10° SE visible
04 Dec 9.4 19:48:24 10° W 19:54:10 19° SW 19:59:56 10° SSW visible
05 Dec 8.0 17:16:56 10° WNW 17:25:58 59° SSW 17:34:53 10° SE visible
05 Dec 9.3 19:22:55 10° W 19:29:09 21° SW 19:35:23 10° S visible
06 Dec 8.0 16:51:43 10° WNW 17:00:50 63° SSW 17:09:49 10° SE visible
06 Dec 9.3 18:57:29 10° W 19:04:07 23° SW 19:10:45 10° S visible
07 Dec 9.3 18:32:05 10° W 18:39:05 25° SW 18:46:03 10° S visible
08 Dec 9.2 18:06:44 10° W 18:14:02 27° SW 18:21:19 10° S visible
09 Dec 9.2 17:41:24 10° WNW 17:48:59 30° SW 17:56:32 10° S visible
